Terminal Aerodrome Forecast
Issued by NWS

Home | Current Version | Previous Version | Text Only | Print | Product List | Glossary On
Versions: 1 2 3 4 5 6 7 8 9 10 11 12 13 14 15 16 17 18 19 20 21
000
FTUS46 KSGX 041720
TAFCRQ
TAF
KCRQ 041720Z 0418/0518 VRB04KT P6SM OVC025
     FM041900 26009KT P6SM BKN030
     FM050000 VRB04KT P6SM BKN020
     FM050700 VRB04KT P6SM OVC015
     FM051400 VRB04KT P6SM OVC022=

USA.gov is the U.S. government's official web portal to all federal, state and local government web resources and services.